(2020 KA) |
Classification: Apollo [NEO] SPK-ID: 54017044 |
[ hide orbit diagram ]
For accurate long-term ephemerides, please instead use our Horizons system.This orbit viewer was implemented using two-body methods, and hence should not be used for determining accurate long-term trajectories (over several years or decades) or planetary encounter circumstances.
Orbital Elements at Epoch 2459000.5 (2020-May-31.0) TDB
Reference: JPL 2 (heliocentric ecliptic J2000)
Element | Value | Uncertainty (1-sigma) | Units |
e | .1706766215255721 | 9.268e-05 | |
a | 1.053041422195103 | 4.8291e-05 | au |
q | .8733118699283589 | 5.8152e-05 | au |
i | 3.91621744171512 | 0.0018965 | deg |
node | 62.17115875328107 | 0.0015581 | deg |
peri | 261.8573241657866 | 0.0023899 | deg |
M | 304.3036488947108 | 0.011893 | deg |
tp | 2459061.564787770096 (2020-Jul-31.06478777) | 0.0088412 | TDB |
period | 394.6995298790205 1.08 | 0.027151 7.434e-05 | d yr |
n | .9120862143168595 | 6.2741e-05 | deg/d |
Q | 1.232770974461846 | 5.6534e-05 | au |
|
| | Orbit Determination Parameters
Additional Information
|
[ show covariance matrix ]
Physical Parameter Table
Parameter |
Symbol |
Value |
Units |
Sigma |
Reference |
Notes |
absolute magnitude |
H |
27.5 |
|
.24708 |
MPO545548 |
autocmod 2.8 |
|
[ show close-approach data ]
|